| time (UTC) | temp F | wind direction | speed MPH | gust MPH | rain 1hr in | rain 24hr in | rain mn in | humidity % | barometer mb |
| 20260506110005 | 83 | 259 | 4.0 | 16.0 | 0.00 | 0.00 | 0.00 | 22 | 1009.4 |
| 20260506105005 | 83 | 290 | 4.0 | 13.0 | 0.00 | 0.00 | 0.00 | 22 | 1009.6 |
| 20260506103005 | 83 | 201 | 7.0 | 25.0 | 0.00 | 0.00 | 0.00 | 22 | 1009.4 |
| 20260506101005 | 83 | 196 | 8.0 | 18.0 | 0.00 | 0.00 | 0.00 | 22 | 1009.4 |
| 20260506100004 | 82 | 191 | 9.0 | 23.0 | 0.00 | 0.00 | 0.00 | 20 | 1009.7 |
| 20260506095004 | 82 | 214 | 9.0 | 17.0 | 0.00 | 0.00 | 0.00 | 20 | 1009.5 |
| 20260506094005 | 82 | 207 | 8.0 | 19.0 | 0.00 | 0.00 | 0.00 | 20 | 1009.8 |
| 20260506093005 | 81 | 196 | 11.0 | 17.0 | 0.00 | 0.00 | 0.00 | 21 | 1009.6 |
| 20260506092004 | 80 | 231 | 9.0 | 23.0 | 0.00 | 0.00 | 0.00 | 22 | 1009.9 |
| 20260506090005 | 80 | 195 | 12.0 | 20.0 | 0.00 | 0.00 | 0.00 | 23 | 1009.7 |
| 20260506085005 | 79 | 209 | 8.0 | 21.0 | 0.00 | 0.00 | 0.00 | 22 | 1009.8 |
| 20260506084004 | 78 | 225 | 13.0 | 20.0 | 0.00 | 0.00 | 0.00 | 24 | 1009.6 |
| 20260505211004 | 65 | 187 | 2.0 | 4.0 | 0.00 | 0.00 | 0.00 | 30 | 1010.5 |
| 20260505210004 | 66 | 195 | 3.0 | 5.0 | 0.00 | 0.00 | 0.00 | 30 | 1010.5 |
| 20260505205003 | 67 | 202 | 3.0 | 8.0 | 0.00 | 0.00 | 0.00 | 28 | 1010.5 |
| 20260505204004 | 67 | 200 | 5.0 | 10.0 | 0.00 | 0.00 | 0.00 | 28 | 1010.6 |
| 20260505203004 | 68 | 195 | 3.0 | 9.0 | 0.00 | 0.00 | 0.00 | 27 | 1010.6 |
| 20260505201004 | 69 | 188 | 5.0 | 8.0 | 0.00 | 0.00 | 0.00 | 25 | 1010.6 |
| 20260505200004 | 69 | 199 | 6.0 | 11.0 | 0.00 | 0.00 | 0.00 | 24 | 1010.5 |
| 20260505194004 | 70 | 195 | 5.0 | 11.0 | 0.00 | 0.00 | 0.00 | 22 | 1010.3 |
| 20260505193004 | 70 | 177 | 7.0 | 11.0 | 0.00 | 0.00 | 0.00 | 22 | 1010.2 |
| 20260505192003 | 70 | 190 | 5.0 | 10.0 | 0.00 | 0.00 | 0.00 | 22 | 1010.2 |
| 20260505191004 | 71 | 183 | 7.0 | 12.0 | 0.00 | 0.00 | 0.00 | 22 | 1010.3 |
| 20260505185003 | 71 | 197 | 4.0 | 12.0 | 0.00 | 0.00 | 0.00 | 21 | 1010.2 |
| 20260505183005 | 72 | 203 | 4.0 | 8.0 | 0.00 | 0.00 | 0.00 | 19 | 1010.0 |
| 20260505182004 | 72 | 174 | 4.0 | 10.0 | 0.00 | 0.00 | 0.00 | 19 | 1010.2 |
| 20260505180004 | 74 | 181 | 5.0 | 9.0 | 0.00 | 0.00 | 0.00 | 20 | 1009.9 |
| 20260505175003 | 75 | 187 | 4.0 | 11.0 | 0.00 | 0.00 | 0.00 | 18 | 1010.1 |
| 20260505174004 | 76 | 178 | 4.0 | 11.0 | 0.00 | 0.00 | 0.00 | 16 | 1010.2 |
| 20260505152004 | 87 | 187 | 11.0 | 15.0 | 0.00 | 0.00 | 0.00 | 10 | 1010.0 |
| 20260505151003 | 89 | 176 | 8.0 | 11.0 | 0.00 | 0.00 | 0.00 | 10 | 1010.2 |
| 20260505125004 | 92 | 209 | 11.0 | 17.0 | 0.00 | 0.00 | 0.00 | 12 | 1011.5 |
| 20260505123004 | 92 | 201 | 9.0 | 14.0 | 0.00 | 0.00 | 0.00 | 12 | 1011.9 |
| 20260505122003 | 91 | 186 | 9.0 | 22.0 | 0.00 | 0.00 | 0.00 | 10 | 1012.0 |
| 20260505121004 | 90 | 178 | 7.0 | 12.0 | 0.00 | 0.00 | 0.00 | 10 | 1012.1 |
| 20260505115003 | 89 | 204 | 13.0 | 18.0 | 0.00 | 0.00 | 0.00 | 10 | 1012.3 |
| 20260505114003 | 90 | 195 | 10.0 | 17.0 | 0.00 | 0.00 | 0.00 | 10 | 1012.3 |
| 20260505113004 | 89 | 175 | 10.0 | 14.0 | 0.00 | 0.00 | 0.00 | 10 | 1012.3 |
| 20260505112003 | 87 | 204 | 8.0 | 17.0 | 0.00 | 0.00 | 0.00 | 10 | 1012.5 |